[Iaude] MPEC M33: 2024 ML [a=2.16,e=0.45,i=12.2,H=23.4]
    mpec at cfa.harvard.edu 
    mpec at cfa.harvard.edu
       
    Wed Jun 19 22:08:02 EDT 2024
    
    
  
M.P.E.C. 2024-M33                                 Issued 2024 June 20, 02:06 UT
     The Minor Planet Electronic Circulars contain information on unusual
         minor planets, routine data on comets and natural satellites,
         and occasional editorial announcements.  They are published
    on behalf of Division F of the International Astronomical Union by the
          Minor Planet Center, Smithsonian Astrophysical Observatory,
                          Cambridge, MA 02138, U.S.A.
			  
             Prepared using the Tamkin Foundation Computer Network
                              MPC at CFA.HARVARD.EDU
            URL https://www.minorplanetcenter.net/    ISSN 1523-6714
                                    2024 ML                                     
Observations:
     K24M00L  C2024 06 07.50429819 58 08.474-18 23 47.43         21.47GVEM033F51
     K24M00L  C2024 06 07.51594419 58 11.207-18 24 20.17         21.83GVEM033F51
     K24M00L  C2024 06 07.52760019 58 13.917-18 24 53.01         21.72GVEM033F51
     K24M00L  C2024 06 07.53926319 58 16.613-18 25 25.55         22.19GVEM033F51
     K24M00L  C2024 06 11.53118620 15 08.212-21 37 27.72         20.98GVEM033F52
     K24M00L  C2024 06 11.54238020 15 10.935-21 38 01.20         21.95GVEM033F52
     K24M00L  C2024 06 11.56480420 15 16.298-21 39 07.12         22.12GVEM033F52
     K24M00L* C2024 06 16.52944920 36 56.086-25 47 54.50         21.86wXEM033F51
     K24M00L  C2024 06 16.53982420 36 58.649-25 48 25.74         21.59wXEM033F51
     K24M00L  C2024 06 16.55019620 37 01.216-25 48 57.42         21.99wXEM033F51
     K24M00L  C2024 06 16.56056120 37 03.812-25 49 28.86         21.43wXEM033F51
     K24M00L KC2024 06 17.41983420 40 51.879-26 32 54.42         21.4 GVEM033I52
     K24M00L KC2024 06 17.42972220 40 54.346-26 33 24.20         21.7 GVEM033I52
     K24M00L KC2024 06 17.43819020 40 56.432-26 33 50.10         20.6 GVEM033I52
     K24M00L  C2024 06 17.58402220 41 34.861-26 41 05.98         22.44GVEM033F51
     K24M00L KC2024 06 18.36890 20 45 04.96 -27 20 38.8                VEM033291
     K24M00L KC2024 06 18.38389 20 45 08.68 -27 21 24.3                VEM033291
Observer details:
291 LPL/Spacewatch II.  Observer T. H. Bressi.  1.8-m f/2.7 reflector + CCD.
F51 Pan-STARRS 1, Haleakala.  Observers J. Herman, T. Lowe, P. Minguez, A.
    Schultz, I. Smith.  Measurers K. Chambers, T. de Boer, J. Fairlamb, H.
    Gao, M. Huber, C.-C. Lin, E. Magnier, Y. Ramanjooloo, R. Wainscoat, R.
    Weryk.  1.8-m Ritchey-Chretien + CCD.
F52 Pan-STARRS 2, Haleakala.  Observers J. Herman, T. Lowe, P. Minguez, A.
    Schultz, I. Smith.  Measurers K. Chambers, T. de Boer, J. Fairlamb, H.
    Gao, M. Huber, C.-C. Lin, E. Magnier, Y. Ramanjooloo, R. Wainscoat, R.
    Weryk.  1.8-m Ritchey-Chretien + CCD.
I52 Steward Observatory, Mt. Lemmon Station.  Observer G. J. Leonard.
    Measurers D. Rankin, D. Parrott.  1.00-m f/2.0 prime focus + CCD + CCD.
Orbital elements:
2024 ML                                                  Earth MOID = 0.1783 AU
Epoch 2024 Mar. 31.0 TT = JDT 2460400.5                 MPC                     
M 334.40046              (2000.0)            P               Q                  
n   0.30946795     Peri.  190.82778     +0.11911057     +0.97026845             
a   2.1646728      Node    86.25694     -0.89444546     +0.19697856             
e   0.4494700      Incl.   12.18940     -0.43102203     -0.14063632             
P   3.18           H   23.41          G   0.15           U   8                  
Residuals in seconds of arc
240607 F51  0.0   0.1-    240611 F52  0.2-  0.3+    240617 I52  0.1-  0.1+
240607 F51  0.2+  0.0     240616 F51  0.0   0.2-    240617 I52  0.5-  0.2-
240607 F51  0.0   0.1-    240616 F51  0.1-  0.2+    240617 F51  0.3+  0.3-
240607 F51  0.3-  0.1+    240616 F51  0.1-  0.0     240618 291  0.4+  0.2+
240611 F52  0.2+  0.1+    240616 F51  0.3+  0.1-    240618 291  0.1-  0.4+
240611 F52  0.5+  0.1-    240617 I52  0.1-  0.0
Ephemeris:
2024 ML                  a,e,i = 2.16, 0.45, 12                  q = 1.1917
Date    TT    R. A. (2000) Decl.     Delta      r    Elong.  Phase     V
2024 05 21    18 52 38.4 -07 31 33   0.2957  1.2373   134.5    35.7    22.7
...
2024 06 05    19 47 52.7 -16 29 21   0.2399  1.2047   138.4    34.0    22.1
...
2024 06 13    20 21 28.0 -22 49 53   0.2239  1.1953   139.7    33.3    21.9
...
2024 06 19    20 47 51.6 -27 51 43   0.2187  1.1921   140.1    33.2    21.9
2024 06 20    20 52 17.8 -28 41 38   0.2184  1.1918   140.0    33.2    21.9
2024 06 21    20 56 43.9 -29 31 10   0.2183  1.1917   140.0    33.2    21.9
...
2024 06 27    21 22 58.7 -34 15 25   0.2204  1.1930   139.6    33.5    21.9
...
2024 07 05    21 55 20.9 -39 41 40   0.2305  1.1999   138.8    33.9    22.0
...
2024 07 20    22 40 11.7 -46 31 33   0.2670  1.2281   138.2    33.5    22.4
A. U. Tomatic                (C) Copyright 2024 MPC           M.P.E.C. 2024-M33
    
    
More information about the Iaude
mailing list